Weather History for Miami, FL

Change the Weather History Date:

Sunday, February 3, 2013

  Actual Average Record
Temperature  
Mean Temperature 68 °F 69 °F  
Max Temperature 76 °F 77 °F 85 °F (1985)
Min Temperature 59 °F 61 °F 27 °F (1917)
Degree Days  
Heating Degree Days 0 1  
Month to date heating degree days 0 3  
Since 1 July heating degree days 20 93  
Cooling Degree Days 3 5  
Month to date cooling degree days 5 15  
Year to date cooling degree days 274 166  
Growing Degree Days 18 (Base 50)    
Moisture  
Dew Point 47 °F    
Average Humidity 53    
Maximum Humidity 78    
Minimum Humidity 27    
Precipitation  
Precipitation 0.00 in 0.07 in 1.25 in (1991)
Month to date precipitation 0.00 0.22  
Year to date precipitation 0.54 1.84  
Snow  
Snow 0.00 in - - ()
Month to date snowfall 0.0  
Since 1 July snowfall 0.0  
Snow Depth 0.00 in    
Sea Level Pressure  
Sea Level Pressure 30.12 in    
Wind  
Wind Speed 5 mph (NW)    
Max Wind Speed 13 mph    
Max Gust Speed 24 mph    
Visibility 10 miles    
Events      
T = Trace of Precipitation, MM = Missing Value Source: NWS Daily Summary

Daily Weather History Graph

Daily Weather History Graph

Search for Another Location

Airport:

Trip Planner

Search our weather history database for the weather conditions in past years. The results will help you decide how hot, cold, wet, or windy it might be!

Date:

Astronomy

Feb. 03, 2013 Rise Set
Actual Time 7:03 AM EST 6:06 PM EST
Civil Twilight 6:39 AM EST 6:30 PM EST
Nautical Twilight 6:12 AM EST 6:58 PM EST
Astronomical Twilight 5:45 AM EST 7:25 PM EST
Moon 12:28 AM EST (2/3) 11:46 AM EST (2/3)
Length of Visible Light 11h 50m
Length of Day
11h 02m
Waning Gibbous, 49% of the Moon is Illuminated
Feb 3
Waning Gibbous
Feb 10
New
Feb 17
First Quarter
Feb 25
Full
Mar 4
Last Quarter

Hourly Weather History & Observations

Time (EST) Temp. Dew Point Humidity Pressure Visibility Wind Dir Wind Speed Gust Speed Precip Events Conditions
12:53 AM 64.0 °F 54.0 °F 70% 30.12 in 10.0 mi Calm Calm - N/A   Partly Cloudy
1:53 AM 63.0 °F 55.0 °F 75% 30.10 in 10.0 mi Calm Calm - N/A   Partly Cloudy
2:53 AM 63.0 °F 55.9 °F 78% 30.09 in 10.0 mi WNW 3.5 mph - N/A   Partly Cloudy
3:53 AM 62.1 °F 55.9 °F 80% 30.10 in 10.0 mi WNW 6.9 mph - N/A   Mostly Cloudy
4:53 AM 62.1 °F 55.9 °F 80% 30.09 in 10.0 mi NW 5.8 mph - N/A   Mostly Cloudy
5:53 AM 61.0 °F 54.0 °F 78% 30.11 in 10.0 mi NW 4.6 mph - N/A   Mostly Cloudy
6:53 AM 60.1 °F 52.0 °F 75% 30.13 in 10.0 mi NNW 4.6 mph - N/A   Scattered Clouds
7:53 AM 61.0 °F 53.1 °F 75% 30.16 in 10.0 mi Variable 3.5 mph - N/A   Partly Cloudy
8:53 AM 64.9 °F 52.0 °F 63% 30.17 in 10.0 mi North 5.8 mph - N/A   Scattered Clouds
9:53 AM 70.0 °F 50.0 °F 49% 30.19 in 10.0 mi Variable 3.5 mph - N/A   Scattered Clouds
10:53 AM 71.1 °F 51.1 °F 49% 30.18 in 10.0 mi NW 5.8 mph - N/A   Scattered Clouds
11:53 AM 73.0 °F 51.1 °F 46% 30.16 in 10.0 mi Variable 6.9 mph - N/A   Scattered Clouds
12:53 PM 73.9 °F 48.9 °F 41% 30.12 in 10.0 mi WNW 8.1 mph - N/A   Scattered Clouds
1:53 PM 75.0 °F 46.0 °F 36% 30.09 in 10.0 mi Variable 6.9 mph - N/A   Mostly Cloudy
2:53 PM 75.0 °F 45.0 °F 34% 30.08 in 10.0 mi NNW 9.2 mph 23.0 mph N/A   Mostly Cloudy
3:53 PM 73.9 °F 45.0 °F 35% 30.08 in 10.0 mi NW 6.9 mph - N/A   Mostly Cloudy
4:53 PM 73.9 °F 39.0 °F 28% 30.09 in 10.0 mi North 6.9 mph - N/A   Mostly Cloudy
5:53 PM 71.1 °F 35.1 °F 27% 30.09 in 10.0 mi NNW 6.9 mph - N/A   Mostly Cloudy
6:53 PM 68.0 °F 37.0 °F 32% 30.09 in 10.0 mi NNW 5.8 mph - N/A   Mostly Cloudy
7:53 PM 66.0 °F 36.0 °F 33% 30.11 in 10.0 mi NNW 3.5 mph - N/A   Scattered Clouds
8:53 PM 64.9 °F 37.0 °F 36% 30.13 in 10.0 mi NNW 4.6 mph - N/A   Scattered Clouds
9:53 PM 63.0 °F 37.9 °F 40% 30.13 in 10.0 mi NW 3.5 mph - N/A   Partly Cloudy
10:53 PM 62.1 °F 39.9 °F 44% 30.14 in 10.0 mi NNW 3.5 mph - N/A   Partly Cloudy
11:53 PM 62.1 °F 41.0 °F 46% 30.12 in 10.0 mi Calm Calm - N/A   Partly Cloudy